Location: Bannatyne
(13.0833°N, 59.5333°W)
Time: 19:00:19
(UTC+00:00)

Cosmos 1242 Rocket - Pass Details

Date: 18 October 2019
Orbit: 449 x 488 km, 81.2° (Epoch: 21 November)

Event Time Altitude Azimuth Distance (km) Brightness Sun altitude
Rises 22:49:01 0° 345° (NNW) 2,544 6.3 -18.1°
Reaches altitude 10° 22:51:11 10° 339° (NNW) 1,661 5.4 -18.6°
Maximum altitude 22:54:40 44° 266° (W) 671 3.7 -19.4°
Drops below altitude 10° 22:58:07 10° 192° (SSW) 1,643 5.5 -20.3°
Sets 23:00:15 0° 186° (S) 2,514 6.3 -20.8°
